Back to catalog

NOAA 16 DEB

AlivePO
NORAD 42401·DEBRIS·🇺🇸 United States

Launched Sep 21, 2000 from Vandenberg Space Force Base

Loading…

Next Passes (next 24 hours)

TLE

FreshSource: Space-Track

Epoch: Sep 14, 2026, 03:19 UTC

1 42401U 00055SV  26257.13850883  .00004665  00000-0  95637-3 0  9993
2 42401  98.9421 141.7331 0041689 128.3796 232.1159 14.60710975551419

Track NOAA 16 DEB in real time with AllMySat

Download on the App Store